Powrót do katalogu

EPIC ATHENA

AktywnyNaukaSSO
NORAD 64871·PAYLOAD·🇺🇸 United States

Wystrzelony Jul 23, 2025 z Vandenberg Space Force Base

Loading…

Następne Przeloty (najbliższe 24 godziny)

TLE

ŚwieżeSource: Space-Track

Epoka: Sep 14, 2026, 14:25 UTC

1 64871U 25154C   26257.60100059  .00001416  00000-0  13682-3 0  9991
2 64871  97.6583 319.2652 0005401 317.2392  42.8408 14.94364998 62361

Śledź EPIC ATHENA w czasie rzeczywistym z AllMySat

Download on the App Store